sat.trackr.live / text

‹ back to catalog

STARLINK-3994

NORAD 52633 · 2022-052AM

PAYLOAD ACTIVE UNKNOWN

§ Identity

Operator
Country
US
Launch date
2022-05-14
Launch site
AFETR
Launch vehicle
Mass (kg)
RCS (m²)

Purposes: comms

External: N2YO · Heavens-Above · Gunter

§ Orbital elements

Epoch: 2026-05-24T16:11:22.500672Z

Period
95.44 min
Inclination
53.2144°
Eccentricity
0.0001243
Mean motion
15.08836921 rev/d
Perigee alt
538.9 km
Apogee alt
540.6 km
Semi-major
6,917.9 km
B*
2.2346e-5
RAAN
288.0108°
Arg perigee
84.9285°
Mean anomaly
275.1849°
Rev number
22,247

§ Raw data

STARLINK-39941 52633U 22052AM  26144.67456598  .00000068  00000+0  22346-4 0  99912 52633  53.2144 288.0108 0001243  84.9285 275.1849 15.08836921222479

JSON: /api/v1/satellites/52633 · /tle

For live sub-satellite position, see the globe view (requires WebGL).

§ Visibility from observer

Set your observer location to see the next 7 days of passes ≥ 10°. The values pass through the URL so the page stays shareable.

No JS? Fill the form by hand. The geolocation button needs JavaScript.